AL3A Weather Reports


Display with metric or nautical units.
time (UTC)temp
F
wind
direction
speed
MPH
gust
MPH
rain 1hr
in
rain 24hr
in
rain mn
in
humidity
%
barometer
mb
20260831005516 69 0.0 1.0 0.00 0.00 0.00 70 1024.6
20260831004517 69 0.0 0.0 0.00 0.00 0.00 68 1024.6
20260831003516 69 0.0 2.0 0.00 0.00 0.00 67 1024.3
20260831002516 69 248 1.0 5.0 0.00 0.00 0.00 67 1024.4
20260831001516 70 0.0 3.0 0.00 0.00 0.00 66 1024.7
20260831000557 70 270 2.0 7.0 0.00 0.00 0.00 64 1024.7
20260830235516 71 270 2.0 6.0 0.00 0.00 0.00 63 1024.8
20260830234516 71 248 3.0 9.0 0.00 0.00 0.00 62 1026.0
20260830233517 71 225 2.0 7.0 0.00 0.00 0.00 63 1026.3
20260830232537 72 270 3.0 8.0 0.00 0.00 0.00 62 1026.3
20260830231516 72 270 1.0 4.0 0.00 0.00 0.00 61 1026.2
20260830230516 73 270 3.0 9.0 0.00 0.00 0.00 59 1026.7
20260830225517 73 248 3.0 10.0 0.00 0.00 0.00 56 1026.7
20260830224516 73 248 3.0 10.0 0.00 0.00 0.00 57 1027.2
20260830223516 74 248 3.0 9.0 0.00 0.00 0.00 59 1027.5
20260830222516 73 225 3.0 9.0 0.00 0.00 0.00 60 1027.5
20260830221516 73 248 4.0 14.0 0.00 0.00 0.00 58 1027.5
20260830220516 74 270 2.0 8.0 0.00 0.00 0.00 56 1028.0
20260830215516 73 225 3.0 10.0 0.00 0.00 0.00 57 1028.0
20260830214516 73 225 2.0 8.0 0.00 0.00 0.00 58 1028.5
20260830213516 73 248 4.0 15.0 0.00 0.00 0.00 55 1028.5
20260830212516 73 248 3.0 9.0 0.00 0.00 0.00 55 1028.7
20260830211516 75 225 4.0 11.0 0.00 0.00 0.00 54 1029.6
20260830210516 75 270 4.0 14.0 0.00 0.00 0.00 54 1029.8
20260830205516 75 225 3.0 11.0 0.00 0.01 0.00 55 1029.9
20260830204516 75 225 3.0 8.0 0.00 0.01 0.00 55 1029.2
20260830203516 74 270 5.0 16.0 0.00 0.01 0.00 58 1028.8
20260830202516 74 270 4.0 11.0 0.00 0.01 0.00 60 1029.0
20260830201517 75 225 4.0 12.0 0.00 0.01 0.00 56 1028.9
20260830200516 73 248 3.0 12.0 0.00 0.01 0.00 59 1028.6
20260830195536 74 180 2.0 8.0 0.00 0.01 0.00 59 1028.7
20260830194516 75 270 2.0 7.0 0.00 0.01 0.00 59 1029.7
20260830193516 75 225 4.0 9.0 0.00 0.01 0.00 57 1029.6
20260830192516 73 270 3.0 7.0 0.00 0.01 0.00 62 1029.4
20260830191516 74 248 3.0 9.0 0.00 0.01 0.00 59 1029.8
20260830190516 75 180 2.0 6.0 0.00 0.01 0.00 57 1030.4
20260830185516 74 270 2.0 10.0 0.00 0.01 0.00 60 1029.8
20260830184516 73 225 5.0 13.0 0.00 0.01 0.00 58 1030.0
20260830183516 73 225 4.0 13.0 0.00 0.01 0.00 59 1029.9
20260830182516 73 248 3.0 10.0 0.00 0.01 0.00 58 1030.0
20260830181516 71 248 5.0 13.0 0.00 0.01 0.00 63 1029.9
20260830180516 71 270 4.0 10.0 0.00 0.01 0.00 61 1029.9
20260830175516 70 270 5.0 12.0 0.00 0.01 0.00 60 1029.9
20260830174516 71 270 5.0 14.0 0.00 0.01 0.00 59 1030.5
20260830173516 71 248 3.0 9.0 0.00 0.01 0.00 62 1030.6
20260830172516 71 248 3.0 12.0 0.00 0.01 0.00 62 1030.7
20260830171516 72 225 4.0 13.0 0.00 0.01 0.00 64 1030.8
20260830170515 70 225 3.0 9.0 0.00 0.01 0.00 64 1030.7
20260830165516 70 248 2.0 8.0 0.00 0.01 0.00 66 1030.7
20260830164515 68 248 3.0 13.0 0.00 0.01 0.00 67 1030.2
20260830163516 69 225 3.0 9.0 0.00 0.01 0.00 67 1030.6
20260830162556 69 270 4.0 11.0 0.00 0.01 0.00 68 1030.7
20260830161515 69 248 2.0 7.0 0.00 0.01 0.00 71 1030.9
20260830160515 68 248 2.0 6.0 0.00 0.01 0.00 73 1030.4
20260830155516 67 248 2.0 11.0 0.00 0.01 0.00 75 1030.4
20260830154516 67 270 2.0 7.0 0.00 0.01 0.00 76 1030.5
20260830153516 67 270 2.0 8.0 0.00 0.01 0.00 77 1030.6
20260830152515 66 0.0 0.0 0.00 0.01 0.00 79 1030.3
20260830151516 65 0.0 0.0 0.00 0.01 0.00 81 1030.4
20260830150535 63 0.0 0.0 0.00 0.01 0.00 82 1029.8
20260830145536 61 0.0 0.0 0.00 0.01 0.00 86 1029.4
20260830144515 59 0.0 0.0 0.00 0.01 0.00 89 1029.5
20260830143521 58 0.0 0.0 0.00 0.01 0.00 90 1029.5
20260830142515 56 0.0 0.0 0.00 0.01 0.00 92 1028.9
20260830141535 55 0.0 0.0 0.00 0.01 0.00 94 1029.3
20260830140537 53 0.0 0.0 0.00 0.01 0.00 97 1028.6
20260830135515 50 0.0 0.0 0.00 0.01 0.00 95 1027.4
20260830134515 50 0.0 0.0 0.00 0.01 0.00 94 1027.3
20260830133515 50 0.0 0.0 0.00 0.01 0.00 95 1027.3
20260830132515 49 0.0 0.0 0.00 0.01 0.00 94 1027.1
20260830131515 49 0.0 0.0 0.00 0.01 0.00 94 1027.4
20260830130537 50 0.0 0.0 0.00 0.01 0.00 95 1027.2
20260830125537 50 0.0 0.0 0.00 0.02 0.00 94 1027.1
20260830124537 50 0.0 0.0 0.00 0.02 0.00 94 1027.4
20260830123517 50 0.0 0.0 0.00 0.02 0.00 94 1027.3
20260830122517 50 0.0 0.0 0.00 0.02 0.00 94 1027.2
20260830121517 50 0.0 0.0 0.00 0.02 0.00 93 1027.1
20260830120517 51 0.0 0.0 0.00 0.02 0.00 94 1027.6
20260830115517 51 0.0 0.0 0.00 0.03 0.00 93 1027.4
20260830114517 51 0.0 0.0 0.00 0.03 0.00 93 1028.4
20260830113517 52 0.0 1.0 0.00 0.03 0.00 92 1029.0
20260830112517 53 0.0 1.0 0.00 0.03 0.00 92 1029.1
20260830111517 53 0.0 1.0 0.00 0.03 0.00 93 1029.2
20260830110557 53 0.0 0.0 0.00 0.03 0.00 92 1029.1
20260830105517 53 0.0 0.0 0.00 0.04 0.00 91 1029.2
20260830104517 54 0.0 1.0 0.00 0.04 0.00 90 1028.9
20260830103517 54 0.0 0.0 0.00 0.04 0.00 90 1028.7
20260830102517 54 0.0 0.0 0.00 0.04 0.00 88 1028.8
20260830101517 55 0.0 0.0 0.00 0.04 0.00 87 1027.4
20260830100537 56 0.0 0.0 0.00 0.04 0.00 86 1027.3
20260830095517 56 0.0 0.0 0.00 0.04 0.00 86 1027.3
20260830094517 57 0.0 0.0 0.00 0.04 0.00 83 1026.3
20260830093517 59 0.0 0.0 0.00 0.04 0.00 81 1026.9
20260830092517 59 0.0 2.0 0.00 0.04 0.00 80 1026.8
20260830091517 59 0.0 2.0 0.00 0.04 0.00 79 1027.8
20260830090517 59 90 1.0 4.0 0.00 0.04 0.00 79 1027.9
20260830085617 60 90 1.0 2.0 0.00 0.46 0.00 79 1028.4
20260830084516 60 180 1.0 5.0 0.00 0.46 0.00 77 1029.4
20260830083516 58 203 1.0 5.0 0.00 0.46 0.00 82 1028.8
20260830082516 55 0.0 4.0 0.00 0.46 0.00 91 1027.6
20260830081516 55 0.0 0.0 0.00 0.46 0.00 91 1028.3
20260830080516 55 0.0 0.0 0.00 0.46 0.00 92 1028.3
20260830075517 55 0.0 0.0 0.00 0.49 0.00 93 1028.4
20260830074516 55 0.0 1.0 0.00 0.49 0.00 92 1028.8
20260830073516 55 0.0 0.0 0.00 0.49 0.00 91 1029.5
20260830072517 56 0.0 0.0 0.00 0.49 0.00 91 1029.6
20260830071536 56 0.0 0.0 0.00 0.49 0.00 90 1029.6
20260830070516 56 0.0 0.0 0.00 0.49 0.00 92 1029.7
20260830065517 57 0.0 0.0 0.00 0.49 0.49 91 1029.7
20260830064517 57 0.0 0.0 0.00 0.49 0.49 91 1030.1
20260830063517 57 0.0 1.0 0.00 0.49 0.49 90 1030.1
20260830062517 58 0.0 0.0 0.00 0.49 0.49 89 1030.0
20260830061557 58 0.0 0.0 0.00 0.49 0.49 89 1029.9
20260830060517 59 0.0 0.0 0.00 0.49 0.49 88 1030.0
20260830055538 59 0.0 0.0 0.00 0.49 0.49 88 1030.1
20260830054517 60 0.0 0.0 0.00 0.49 0.49 87 1030.3
20260830053517 61 0.0 0.0 0.00 0.49 0.49 86 1030.4
20260830052537 61 0.0 0.0 0.00 0.49 0.49 84 1030.6
20260830051517 62 0.0 0.0 0.00 0.49 0.49 82 1030.5
20260830050517 62 0.0 1.0 0.00 0.49 0.49 82 1030.4
20260830045537 62 0.0 1.0 0.00 0.49 0.49 81 1030.4
20260830044517 62 0.0 0.0 0.00 0.49 0.49 80 1028.9
20260830043517 63 0.0 1.0 0.00 0.49 0.49 78 1029.4
20260830042517 63 0.0 0.0 0.00 0.49 0.49 78 1029.4
20260830041517 63 0.0 1.0 0.00 0.49 0.49 79 1027.9
20260830040517 62 0.0 0.0 0.00 0.49 0.49 83 1028.1
20260830035517 63 0.0 0.0 0.00 0.49 0.49 82 1027.9
20260830034517 63 0.0 0.0 0.00 0.49 0.49 81 1027.4
20260830033537 63 0.0 0.0 0.00 0.49 0.49 80 1027.3
20260830032517 63 0.0 0.0 0.00 0.49 0.49 81 1026.9
20260830031517 63 0.0 0.0 0.00 0.49 0.49 81 1026.1
20260830030517 64 0.0 0.0 0.00 0.49 0.49 81 1026.3
20260830025517 64 0.0 1.0 0.00 0.49 0.49 79 1026.1
20260830024537 64 0.0 0.0 0.00 0.49 0.49 78 1025.6
20260830023517 65 0.0 1.0 0.00 0.49 0.49 77 1025.4
20260830022517 65 0.0 0.0 0.00 0.49 0.49 75 1025.6
20260830021517 66 0.0 1.0 0.00 0.49 0.49 73 1025.4
20260830020517 68 0.0 1.0 0.00 0.49 0.49 72 1025.8
20260830015516 68 0.0 1.0 0.00 0.49 0.49 71 1026.4
20260830014516 69 0.0 0.0 0.00 0.49 0.49 68 1027.2
20260830013517 70 0.0 0.0 0.00 0.49 0.49 69 1027.4
20260830012516 69 0.0 1.0 0.00 0.49 0.49 69 1027.2
20260830011537 69 0.0 1.0 0.00 0.49 0.49 67 1027.3
20260830010516 71 0.0 0.0 0.00 0.49 0.49 66 1027.3